Regional Weather Roundup
Issued by NWS Kansas City/Pleasant Hill, MO

Home | Current Version | Previous Version | Graphics & Text | Print | Product List | Glossary Off
Versions: 1 2 3 4 5 6 7 8 9 10 11 12 13 14 15 16 17 18 19 20 21 22 23 24 25 26 27 28 29 30 31 32 33 34 35 36 37 38 39 40 41 42 43 44 45 46 47 48 49 50

000
ASUS43 KEAX 111804
RWREAX

WEATHER ROUNDUP FOR EASTERN KANSAS AND NORTHWEST MISSOURI
NATIONAL WEATHER SERVICE KANSAS CITY/PLEASANT HILL MO
100 PM CDT FRI JUL 11 2014

KSZ040-057-103>105-MOZ028-029-037-043-111900-
...KANSAS CITY METROPOLITAN AREA...

CITY           SKY/WX    TMP DP  RH WIND       PRES   REMARKS
K.C. INTL      PTSUNNY   82  71  69 SW15      30.04F
6HR MIN TEMP:  70; 6HR MAX TEMP:  83; 6HR PCP: TRACE;

K.C. DOWNTOWN  PTSUNNY   86  72  62 S12       30.03F HX  92
6HR MIN TEMP:  72; 6HR MAX TEMP:  87;

LEES SUMMIT    PTSUNNY   84  71  65 SW10      30.07S
6HR MIN TEMP:  68; 6HR MAX TEMP:  84;

OLATHE - IXD   PTSUNNY   86  71  60 S13       30.06F HX  91
6HR MIN TEMP:  70; 6HR MAX TEMP:  87;

OLATHE - OJC   PTSUNNY   82  72  71 SW9       30.06F
6HR MIN TEMP:  69; 6HR MAX TEMP:  84;

LAWRENCE       MOSUNNY   84  70  62 S14       30.04S

$$

MOZ001>008-011>017-020>025-030>033-038>040-044>046-053-054-111900-
...NORTHERN AND CENTRAL MISSOURI...

CITY           SKY/WX    TMP DP  RH WIND       PRES   REMARKS
ST. JOSEPH     PTSUNNY   82  72  71 S13       30.02F
6HR MIN TEMP:  69; 6HR MAX TEMP:  83; 6HR PCP:  0.02;

MOSBY          CLOUDY    82  70  65 S9        30.04F
WHITEMAN AFB   PTSUNNY   83  67  56 S14       30.07S
6HR MIN TEMP:  68; 6HR MAX TEMP:  84;

CLINTON        MOSUNNY   84  75  74 S9        30.08S HX  92
SEDALIA        PTSUNNY   88  74  63 S14       30.09F HX  96
6HR MIN TEMP:  68; 6HR MAX TEMP:  88;

WARSAW         NOT AVBL
MARSHALL         N/A     88  75  66 S10       30.07F HAZE    HX  97
CHILLICOTHE      N/A     82  70  66 S8        30.05F
6HR MIN TEMP:  68; 6HR MAX TEMP:  82;

KIRKSVILLE     PTSUNNY   81  70  69 S13       30.08F
6HR MIN TEMP:  63; 6HR MAX TEMP:  83;


$$

MOZ041-047>049-056>058-063>065-088>090-097-111900-
...EASTERN AND SOUTHERN MISSOURI...

CITY           SKY/WX    TMP DP  RH WIND       PRES   REMARKS
ST. LOUIS INTL PTSUNNY   88  66  48 VRB5      30.15F HX  90
6HR MIN TEMP:  69; 6HR MAX TEMP:  87;

SPIRIT OF STL  PTSUNNY   85  67  54 S8        30.12F
COLUMBIA       SUNNY     86  72  62 S8        30.10F HX  92
JEFFERSON CITY SUNNY     85  70  60 S7        30.09F
HANNIBAL       PTSUNNY   84  64  51 SE9       30.11F
ROLLA          SUNNY     86  69  56 S8        30.13F HX  90
LEBANON        SUNNY     86  70  58 S8        30.15F HX  90
OSAGE BEACH    SUNNY     86  72  62 S9        30.11S HX  92
SPRINGFIELD    MOSUNNY   85  71  63 SW12      30.13F HX  90
BRANSON        MOSUNNY   90  70  51 S7        30.17F HX  95
NEVADA         SUNNY     88  73  62 S7        30.09F HX  96
JOPLIN         SUNNY     89  71  55 SW13      30.10F HX  95
WEST PLAINS    SUNNY     81  68  64 SE9       30.19F
PIEDMONT       SUNNY     86  66  51 SW7       30.17F
MALDEN         MOSUNNY   88  64  45 S5        30.17F

$$

IAZ060-094-KSZ022-034>040-054-083-096-NEZ052-066-093-111900-
...KANSAS...SOUTHEAST NEBRASKA AND IOWA...

CITY           SKY/WX    TMP DP  RH WIND       PRES   REMARKS
TOPEKA         MOSUNNY   88  72  58 S8        30.03F HX  94
6HR MIN TEMP:  72; 6HR MAX TEMP:  88;

MANHATTAN      MOSUNNY   91  67  44 SW8       30.00S HX  94
EMPORIA        MOSUNNY   88  68  51 S13       30.04S HX  91
CHANUTE        SUNNY     87  70  56 S14G22    30.07S HX  92
WICHITA        MOSUNNY   89  68  49 S14       30.04S HX  93
OMAHA          CLOUDY    76  68  76 S10       29.99R
LINCOLN        CLOUDY    82  70  66 S9        29.98F
FALLS CITY     MOSUNNY   86  71  60 S13       29.98F HX  91
LAMONI         CLOUDY    76  69  79 S7G22     30.03F
DES MOINES     CLOUDY    73  67  81 SE10      30.02F

$$



USA.gov is the U.S. government's official web portal to all federal, state and local government web resources and services.